Location: Landeleau
(48.2273°N, 3.7285°W)
Time: 23:25:02
(UTC+00:00)

Meteor 2-5 Rocket - Pass Details

Date: 30 March 2020
Orbit: 833 x 912 km, 81.2° (Epoch: 27 May)

Event Time Altitude Azimuth Distance (km) Brightness Sun altitude
Rises 19:04:59 0° 348° (NNW) 3,466 7.2 -4.5°
Reaches altitude 10° 19:07:26 10° 349° (NNW) 2,512 6.5 -4.9°
Maximum altitude 19:13:09 88° 78° (ENE) 857 3.8 -5.8°
Drops below altitude 10° 19:18:43 10° 170° (S) 2,450 5.9 -6.7°
Sets 19:21:06 0° 170° (S) 3,374 6.6 -7.1°
